Location: Cabeza Gorda
(40.0667°N, 4.9667°W)
Time: 19:49:50
(UTC+00:00)

GEOS 3 Rocket - Pass Details

Date: 15 January 2026
Orbit: 768 x 845 km, 115.0° (Epoch: 11 February)

Event Time Altitude Azimuth Distance (km) Brightness Sun altitude
Rises 06:07:46 0° 138° (SE) 3,291 7.7 -17.4°
Reaches altitude 10° 06:10:02 10° 137° (SE) 2,375 6.9 -17.0°
Maximum altitude 06:15:11 75° 53° (NE) 847 3.8 -16.0°
Enters shadow 06:20:05 12° 329° (NNW) 2,281 5.5 -15.1°
